Stündliche Wetter Dzierzazna

Heute, 14 Juni, Montag

Zeit Temperatur Niederschläge Wind Luftdruck Luftfeuchtigkeit
00:00 +10°C° 0 mm 3 m/S 761 mmHg 91%
01:00 +9°C° 0 mm 3 m/S 761 mmHg 93%
02:00 +9°C° 0 mm 3 m/S 761 mmHg 93%
03:00 +8°C° 0 mm 3 m/S 761 mmHg 93%
04:00 +8°C° 0 mm 3 m/S 761 mmHg 94%
05:00 +10°C° 0 mm 3 m/S 761 mmHg 87%
06:00 +12°C° 0 mm 3 m/S 761 mmHg 80%
07:00 +14°C° 0 mm 3 m/S 761 mmHg 73%
08:00 +17°C° 0 mm 3 m/S 761 mmHg 67%
09:00 +18°C° 0 mm 3 m/S 761 mmHg 61%
10:00 +20°C° 0 mm 3 m/S 761 mmHg 55%
11:00 +20°C° 0 mm 3 m/S 760 mmHg 53%
12:00 +21°C° 0 mm 3 m/S 760 mmHg 51%
13:00 +22°C° 0 mm 3 m/S 760 mmHg 49%
14:00 +22°C° 0 mm 3 m/S 760 mmHg 49%
15:00 +23°C° 0 mm 2 m/S 759 mmHg 50%
16:00 +23°C° 0 mm 2 m/S 759 mmHg 50%
17:00 +21°C° 0 mm 2 m/S 759 mmHg 57%
18:00 +20°C° 0 mm 2 m/S 759 mmHg 64%
19:00 +19°C° 0 mm 2 m/S 759 mmHg 72%
20:00 +18°C° 0 mm 2 m/S 759 mmHg 75%
21:00 +16°C° 0 mm 2 m/S 759 mmHg 77%
22:00 +15°C° 0 mm 2 m/S 759 mmHg 80%
23:00 +14°C° 0 mm 2 m/S 759 mmHg 82%

Morgen, 15 Juni, Dienstag

Zeit Temperatur Niederschläge Wind Luftdruck Luftfeuchtigkeit
00:00 +14°C° 0 mm 2 m/S 758 mmHg 84%
01:00 +14°C° 0 mm 2 m/S 758 mmHg 85%
02:00 +13°C° 0 mm 2 m/S 758 mmHg 85%
03:00 +13°C° 0 mm 2 m/S 758 mmHg 85%
04:00 +13°C° 0 mm 2 m/S 758 mmHg 85%
05:00 +15°C° 0 mm 2 m/S 758 mmHg 80%
06:00 +16°C° 0 mm 3 m/S 758 mmHg 75%
07:00 +18°C° 0 mm 3 m/S 758 mmHg 71%
08:00 +19°C° 0 mm 3 m/S 758 mmHg 67%
09:00 +21°C° 0 mm 3 m/S 758 mmHg 63%
10:00 +22°C° 0 mm 3 m/S 758 mmHg 60%
11:00 +24°C° 0 mm 3 m/S 758 mmHg 59%
12:00 +24°C° 0 mm 3 m/S 757 mmHg 57%
13:00 +25°C° 0 mm 3 m/S 757 mmHg 56%
14:00 +25°C° 0.1 mm 3 m/S 757 mmHg 60%
15:00 +24°C° 0.1 mm 3 m/S 757 mmHg 63%
16:00 +24°C° 0.1 mm 3 m/S 757 mmHg 67%
17:00 +22°C° 0.4 mm 3 m/S 757 mmHg 75%
18:00 +20°C° 0.4 mm 2 m/S 757 mmHg 83%
19:00 +19°C° 0.4 mm 2 m/S 757 mmHg 90%
20:00 +18°C° 0 mm 2 m/S 758 mmHg 92%
21:00 +17°C° 0 mm 2 m/S 758 mmHg 94%
22:00 +16°C° 0 mm 2 m/S 758 mmHg 96%
23:00 +14°C° 0 mm 3 m/S 758 mmHg 94%

übermorgen, 16 Juni, Mittwoch

Zeit Temperatur Niederschläge Wind Luftdruck Luftfeuchtigkeit
00:00 +13°C° 0 mm 3 m/S 759 mmHg 92%
01:00 +12°C° 0 mm 3 m/S 759 mmHg 90%
02:00 +11°C° 0 mm 3 m/S 759 mmHg 89%
03:00 +12°C° 0 mm 2 m/S 759 mmHg 88%
04:00 +10°C° 0 mm 2 m/S 759 mmHg 86%
05:00 +13°C° 0 mm 2 m/S 760 mmHg 81%
06:00 +14°C° 0 mm 2 m/S 760 mmHg 75%
07:00 +15°C° 0 mm 2 m/S 760 mmHg 70%
08:00 +17°C° 0 mm 2 m/S 760 mmHg 63%
09:00 +18°C° 0 mm 2 m/S 760 mmHg 57%
10:00 +20°C° 0 mm 2 m/S 760 mmHg 50%
11:00 +21°C° 0 mm 2 m/S 760 mmHg 48%
12:00 +23°C° 0 mm 2 m/S 760 mmHg 46%
13:00 +23°C° 0 mm 2 m/S 760 mmHg 43%
14:00 +24°C° 0 mm 2 m/S 760 mmHg 44%
15:00 +24°C° 0 mm 2 m/S 760 mmHg 44%
16:00 +24°C° 0 mm 2 m/S 760 mmHg 44%
17:00 +21°C° 0 mm 2 m/S 760 mmHg 52%
18:00 +20°C° 0 mm 2 m/S 760 mmHg 60%
19:00 +19°C° 0 mm 2 m/S 760 mmHg 68%
20:00 +17°C° 0 mm 2 m/S 760 mmHg 70%
21:00 +16°C° 0 mm 2 m/S 760 mmHg 73%
22:00 +14°C° 0 mm 3 m/S 760 mmHg 75%
23:00 +13°C° 0 mm 3 m/S 760 mmHg 77%

17 Juni, Donnerstag

Zeit Temperatur Niederschläge Wind Luftdruck Luftfeuchtigkeit
00:00 +13°C° 0 mm 3 m/S 760 mmHg 79%
01:00 +13°C° 0 mm 2 m/S 761 mmHg 82%
02:00 +12°C° 0 mm 3 m/S 761 mmHg 84%
03:00 +11°C° 0 mm 3 m/S 760 mmHg 86%
04:00 +11°C° 0 mm 3 m/S 760 mmHg 88%
05:00 +13°C° 0 mm 3 m/S 761 mmHg 82%
06:00 +16°C° 0 mm 3 m/S 761 mmHg 75%
07:00 +18°C° 0 mm 3 m/S 761 mmHg 68%
08:00 +20°C° 0 mm 4 m/S 761 mmHg 62%
09:00 +21°C° 0 mm 4 m/S 761 mmHg 56%
10:00 +22°C° 0 mm 4 m/S 761 mmHg 50%
11:00 +23°C° 0 mm 4 m/S 761 mmHg 48%
12:00 +25°C° 0 mm 4 m/S 760 mmHg 46%
13:00 +26°C° 0 mm 4 m/S 760 mmHg 44%
14:00 +26°C° 0 mm 4 m/S 760 mmHg 45%
15:00 +26°C° 0 mm 4 m/S 760 mmHg 46%
16:00 +26°C° 0 mm 4 m/S 760 mmHg 47%
17:00 +25°C° 0 mm 4 m/S 759 mmHg 55%
18:00 +24°C° 0 mm 3 m/S 759 mmHg 63%
19:00 +21°C° 0 mm 2 m/S 759 mmHg 71%
20:00 +20°C° 0 mm 3 m/S 759 mmHg 75%
21:00 +19°C° 0 mm 3 m/S 760 mmHg 79%
22:00 +17°C° 0 mm 3 m/S 760 mmHg 83%
23:00 +17°C° 0 mm 3 m/S 760 mmHg 84%

18 Juni, Freitag

Zeit Temperatur Niederschläge Wind Luftdruck Luftfeuchtigkeit
00:00 +16°C° 0 mm 3 m/S 760 mmHg 85%
01:00 +16°C° 0 mm 3 m/S 760 mmHg 86%
02:00 +16°C° 0 mm 3 m/S 759 mmHg 87%
03:00 +16°C° 0 mm 3 m/S 759 mmHg 88%
04:00 +16°C° 0 mm 3 m/S 759 mmHg 89%
05:00 +18°C° 0 mm 4 m/S 759 mmHg 84%
06:00 +20°C° 0 mm 4 m/S 759 mmHg 79%
07:00 +22°C° 0 mm 5 m/S 759 mmHg 74%
08:00 +23°C° 0 mm 5 m/S 759 mmHg 69%
09:00 +26°C° 0 mm 5 m/S 759 mmHg 64%
10:00 +27°C° 0 mm 6 m/S 759 mmHg 59%
11:00 +28°C° 0 mm 6 m/S 759 mmHg 57%
12:00 +29°C° 0 mm 5 m/S 759 mmHg 54%
13:00 +29°C° 0 mm 5 m/S 758 mmHg 51%
14:00 +29°C° 0 mm 5 m/S 758 mmHg 51%
15:00 +29°C° 0 mm 5 m/S 758 mmHg 52%
16:00 +29°C° 0 mm 4 m/S 758 mmHg 52%
17:00 +28°C° 0 mm 4 m/S 758 mmHg 59%
18:00 +26°C° 0 mm 3 m/S 758 mmHg 66%
19:00 +25°C° 0 mm 3 m/S 758 mmHg 73%
20:00 +24°C° 0 mm 3 m/S 758 mmHg 76%
21:00 +22°C° 0 mm 3 m/S 759 mmHg 79%
22:00 +20°C° 0 mm 3 m/S 759 mmHg 83%
23:00 +20°C° 0 mm 3 m/S 759 mmHg 86%

19 Juni, Samstag

Zeit Temperatur Niederschläge Wind Luftdruck Luftfeuchtigkeit
00:00 +20°C° 0 mm 3 m/S 759 mmHg 89%
01:00 +19°C° 0 mm 3 m/S 759 mmHg 93%
02:00 +19°C° 0 mm 3 m/S 759 mmHg 93%
03:00 +19°C° 0 mm 2 m/S 759 mmHg 93%
04:00 +19°C° 0 mm 2 m/S 759 mmHg 93%
05:00 +20°C° 0 mm 3 m/S 759 mmHg 87%
06:00 +22°C° 0 mm 4 m/S 760 mmHg 80%
07:00 +23°C° 0 mm 4 m/S 760 mmHg 73%
08:00 +25°C° 0 mm 4 m/S 760 mmHg 67%
09:00 +26°C° 0 mm 4 m/S 760 mmHg 61%
10:00 +28°C° 0 mm 5 m/S 760 mmHg 54%
11:00 +28°C° 0 mm 5 m/S 760 mmHg 55%
12:00 +28°C° 0 mm 5 m/S 760 mmHg 56%
13:00 +29°C° 0 mm 5 m/S 759 mmHg 56%
14:00 +28°C° 0 mm 5 m/S 759 mmHg 58%
15:00 +28°C° 0 mm 5 m/S 759 mmHg 59%
16:00 +28°C° 0 mm 6 m/S 759 mmHg 60%
17:00 +27°C° 0 mm 5 m/S 759 mmHg 65%
18:00 +26°C° 0 mm 5 m/S 759 mmHg 70%
19:00 +25°C° 0 mm 4 m/S 759 mmHg 76%
20:00 +22°C° 0 mm 4 m/S 759 mmHg 81%
21:00 +21°C° 0 mm 3 m/S 759 mmHg 86%
22:00 +20°C° 0 mm 3 m/S 759 mmHg 91%
23:00 +19°C° 0 mm 3 m/S 759 mmHg 92%
Mehr zeigen

Wir brauchen deine Erlaubnis

Meteoprog und unser Service Anbieter werden persönliche Daten aufbewahren, so wie Cookies, Geräte Bezeichnung oder ähnliche Technologien von deinem Gerät und Prozess, so wie Persönliche Daten Inhalte und Werbungen, genauso wie social Media und den Verkehr zu analysieren.

  • Aufbewahrung und/oder Zugang zu deiner Geräte Informationen.

    Cookies, Geräte Bezeichnung oder andere Informationen, können aufbewahrt oder Zugang zu deinem Gerät erhalten, für den Grund, der oben angegeben wird.

  • Personalisierte Werbung und Inhalte, Messungen, Einblick in das Publikum und Produkt Entwicklung.

    Werbungen und Inhalte können personalisiert werden, basierend auf ein Profil. Mehr Daten können besser personalisierte Werbungen und Inhalte hinzufügen. Werbung und Inhalte können gezeigt und gemessen werden. Einblicke über das Publikum, welche die Werbung gesehen haben und den Inhalt, können abgeleitet werden. So wie Daten können genutzt werden, um es zu verbessern oder die Benutzer Erfahrung zu verbessern das System und die Software.

Wenn du “Ich stimme zu” klickst, erlaubst du uns, die Cookies zu benutzen die Geräte Bezeichnung, den Web oder ähnliche Technologien zu benutzen. Deine Settings, können in deinem Gerät bei deinem Browser geändert werden.

Für den bestimmten Zweck, berechtigten Interessen beruhen darauf, mehr als auf den Inhalt. Du kannst mehr darüber in unseren Privaten und Cookie Politik lesen.